Time,TemperatureF,DewpointF,PressureIn,WindDirection,WindDirectionDegrees,WindSpeedMPH,WindSpeedGustMPH,Humidity,HourlyPrecipIn,Conditions,Clouds,dailyrainin,SoftwareType,DateUTC
2013-08-29 00:18:00,70.0,68.0,-100.00,East,80,0.0,0.0,94,0.00,,,1.42,,2013-08-29 04:18:00,
2013-08-29 00:28:00,70.0,68.0,-100.00,East,80,0.0,0.0,94,0.00,,,-99.99,,2013-08-29 04:28:00,
2013-08-29 00:45:00,69.0,68.0,-100.00,East,80,0.0,0.0,95,0.00,,,1.42,,2013-08-29 04:45:00,
2013-08-29 00:54:00,69.0,68.0,-100.00,East,80,0.0,0.0,95,0.00,,,1.42,,2013-08-29 04:54:00,
2013-08-29 01:14:00,69.0,68.0,-100.00,East,80,0.0,0.0,95,0.00,,,1.42,,2013-08-29 05:14:00,
2013-08-29 01:23:00,69.0,68.0,-100.00,East,80,0.0,0.0,95,-99.99,,,1.42,,2013-08-29 05:23:00,
2013-08-29 01:42:00,68.0,67.0,-100.00,East,80,0.0,0.0,95,0.00,,,1.42,,2013-08-29 05:42:00,
2013-08-29 01:52:00,68.0,67.0,-100.00,East,80,0.0,0.0,95,0.00,,,1.42,,2013-08-29 05:52:00,
2013-08-29 02:12:00,68.0,67.0,-100.00,East,80,0.0,0.0,95,0.00,,,1.42,,2013-08-29 06:12:00,
2013-08-29 02:22:00,68.0,67.0,-100.00,East,80,0.0,0.0,95,0.00,,,1.42,,2013-08-29 06:22:00,
2013-08-29 02:43:00,67.0,66.0,-100.00,East,80,0.0,0.0,95,0.00,,,1.42,,2013-08-29 06:43:00,
2013-08-29 02:52:00,67.0,66.0,-100.00,East,80,0.0,0.0,96,0.00,,,1.42,,2013-08-29 06:52:00,
2013-08-29 03:12:00,67.0,66.0,-100.00,East,80,0.0,0.0,96,0.00,,,1.42,,2013-08-29 07:12:00,
2013-08-29 03:22:00,67.0,66.0,-100.00,East,80,0.0,0.0,96,0.00,,,1.42,,2013-08-29 07:22:00,
2013-08-29 03:42:00,67.0,66.0,-100.00,East,80,0.0,0.0,96,0.00,,,1.42,,2013-08-29 07:42:00,
2013-08-29 03:53:00,66.0,65.0,-100.00,East,80,0.0,0.0,96,0.00,,,1.42,,2013-08-29 07:53:00,
2013-08-29 04:12:00,66.0,65.0,-100.00,East,80,0.0,0.0,96,0.00,,,1.42,,2013-08-29 08:12:00,
2013-08-29 04:22:00,66.0,65.0,-100.00,East,80,0.0,0.0,96,0.00,,,1.42,,2013-08-29 08:22:00,
2013-08-29 04:42:00,66.0,65.0,-100.00,East,80,0.0,0.0,96,0.00,,,1.42,,2013-08-29 08:42:00,
2013-08-29 04:52:00,66.0,65.0,-100.00,East,80,0.0,0.0,96,0.00,,,1.42,,2013-08-29 08:52:00,
2013-08-29 05:12:00,67.0,66.0,-100.00,East,80,0.0,0.0,96,0.00,,,1.42,,2013-08-29 09:12:00,
2013-08-29 05:22:00,67.0,66.0,-100.00,East,80,0.0,0.0,96,0.00,,,1.42,,2013-08-29 09:22:00,
2013-08-29 05:43:00,68.0,67.0,-100.00,East,80,0.0,0.0,97,0.00,,,1.42,,2013-08-29 09:43:00,
2013-08-29 05:55:00,68.0,67.0,-100.00,East,80,0.0,0.0,97,0.00,,,1.42,,2013-08-29 09:55:00,
2013-08-29 06:15:00,68.0,67.0,-100.00,East,80,0.0,0.0,97,0.00,,,1.42,,2013-08-29 10:15:00,
2013-08-29 06:24:00,68.0,67.0,-100.00,East,80,0.0,0.0,97,0.00,,,1.42,,2013-08-29 10:24:00,
2013-08-29 06:53:00,68.0,67.0,-100.00,East,80,0.0,0.0,97,0.00,,,1.42,,2013-08-29 10:53:00,
2013-08-29 07:12:00,68.0,67.0,-100.00,East,80,0.0,0.0,97,0.00,,,1.42,,2013-08-29 11:12:00,
2013-08-29 07:22:00,68.0,67.0,-100.00,East,80,0.0,0.0,97,0.00,,,1.42,,2013-08-29 11:22:00,
2013-08-29 07:42:00,68.0,67.0,-100.00,East,80,0.0,0.0,97,0.00,,,1.42,,2013-08-29 11:42:00,
2013-08-29 07:52:00,68.0,67.0,-100.00,East,80,0.0,0.0,97,0.00,,,1.42,,2013-08-29 11:52:00,
2013-08-29 08:12:00,68.0,67.0,-100.00,East,80,0.0,0.0,97,0.00,,,1.42,,2013-08-29 12:12:00,
2013-08-29 08:22:00,68.0,67.0,-100.00,East,80,0.0,0.0,97,0.00,,,1.42,,2013-08-29 12:22:00,
2013-08-29 08:42:00,69.0,68.0,-100.00,East,80,0.0,0.0,97,0.00,,,1.42,,2013-08-29 12:42:00,
2013-08-29 08:52:00,69.0,68.0,-100.00,East,80,0.0,0.0,97,0.00,,,1.42,,2013-08-29 12:52:00,
2013-08-29 09:12:00,69.0,68.0,-100.00,East,80,0.0,0.0,97,0.00,,,1.42,,2013-08-29 13:12:00,
2013-08-29 09:22:00,69.0,68.0,-100.00,East,80,0.0,0.0,98,0.00,,,1.42,,2013-08-29 13:22:00,
2013-08-29 09:42:00,70.0,69.0,-100.00,East,80,0.0,0.0,98,0.00,,,1.42,,2013-08-29 13:42:00,
2013-08-29 09:52:00,70.0,69.0,-100.00,East,80,0.0,0.0,98,0.00,,,1.42,,2013-08-29 13:52:00,
2013-08-29 10:11:00,70.0,69.0,-100.00,East,80,0.0,0.0,98,0.00,,,1.42,,2013-08-29 14:11:00,
2013-08-29 10:22:00,70.0,69.0,-100.00,East,80,0.0,0.0,98,0.00,,,1.42,,2013-08-29 14:22:00,
2013-08-29 10:42:00,70.0,69.0,-100.00,East,80,0.0,0.0,98,0.00,,,1.42,,2013-08-29 14:42:00,
2013-08-29 10:52:00,70.0,69.0,-100.00,East,80,0.0,0.0,98,0.00,,,1.42,,2013-08-29 14:52:00,
2013-08-29 11:12:00,70.0,69.0,-100.00,East,80,0.0,0.0,97,0.00,,,1.42,,2013-08-29 15:12:00,
2013-08-29 11:22:00,70.0,69.0,-100.00,East,80,0.0,0.0,97,0.00,,,1.42,,2013-08-29 15:22:00,
2013-08-29 11:43:00,70.0,69.0,-100.00,East,80,0.0,0.0,97,0.00,,,1.42,,2013-08-29 15:43:00,
2013-08-29 11:53:00,71.0,70.0,-100.00,East,80,0.0,0.0,97,0.00,,,1.42,,2013-08-29 15:53:00,
2013-08-29 12:13:00,72.0,71.0,-100.00,East,80,0.0,0.0,97,0.00,,,1.42,,2013-08-29 16:13:00,
2013-08-29 12:24:00,73.0,71.0,-100.00,East,80,0.0,0.0,92,0.00,,,1.43,,2013-08-29 16:24:00,
2013-08-29 12:43:00,74.0,69.0,-100.00,East,80,0.0,0.0,85,0.00,,,1.43,,2013-08-29 16:43:00,
2013-08-29 12:53:00,74.0,69.0,-100.00,East,80,0.0,0.0,84,0.00,,,1.43,,2013-08-29 16:53:00,
2013-08-29 13:13:00,75.0,68.0,-100.00,East,80,0.0,0.0,79,0.00,,,1.43,,2013-08-29 17:13:00,
2013-08-29 13:23:00,75.0,68.0,-100.00,East,80,0.0,0.0,79,0.00,,,1.42,,2013-08-29 17:23:00,
2013-08-29 13:44:00,76.0,68.0,-100.00,East,80,0.0,0.0,77,0.00,,,1.42,,2013-08-29 17:44:00,
2013-08-29 13:52:00,76.0,67.0,-100.00,East,80,0.0,0.0,75,0.00,,,1.42,,2013-08-29 17:52:00,
2013-08-29 14:12:00,77.0,69.0,-100.00,East,80,0.0,0.0,76,0.00,,,1.40,,2013-08-29 18:12:00,
2013-08-29 14:22:00,77.0,68.0,-100.00,East,80,0.0,0.0,73,0.00,,,1.40,,2013-08-29 18:22:00,
2013-08-29 14:42:00,76.0,69.0,-100.00,East,80,0.0,0.0,79,0.00,,,1.19,,2013-08-29 18:42:00,
2013-08-29 14:52:00,75.0,68.0,-100.00,East,80,0.0,0.0,79,0.00,,,0.72,,2013-08-29 18:52:00,
2013-08-29 15:11:00,77.0,68.0,-100.00,East,80,0.0,0.0,75,0.00,,,0.28,,2013-08-29 19:11:00,
2013-08-29 15:22:00,79.0,68.0,-100.00,East,80,0.0,0.0,68,0.00,,,0.24,,2013-08-29 19:22:00,
2013-08-29 15:42:00,81.0,68.0,-100.00,East,80,0.0,0.0,64,0.00,,,0.21,,2013-08-29 19:42:00,
2013-08-29 15:52:00,81.0,68.0,-100.00,East,80,0.0,0.0,65,0.00,,,0.21,,2013-08-29 19:52:00,
2013-08-29 16:13:00,82.0,67.0,-100.00,East,80,0.0,0.0,61,0.00,,,0.03,,2013-08-29 20:13:00,
2013-08-29 16:22:00,81.0,67.0,-100.00,East,80,0.0,0.0,62,0.00,,,0.03,,2013-08-29 20:22:00,
2013-08-29 16:42:00,81.0,65.0,-100.00,East,80,0.0,0.0,58,0.00,,,0.03,,2013-08-29 20:42:00,
2013-08-29 16:52:00,80.0,65.0,-100.00,East,80,0.0,0.0,60,0.00,,,0.03,,2013-08-29 20:52:00,
2013-08-29 17:12:00,80.0,66.0,-100.00,East,80,0.0,0.0,63,0.00,,,0.03,,2013-08-29 21:12:00,
2013-08-29 17:22:00,80.0,65.0,-100.00,East,80,0.0,0.0,60,0.00,,,0.03,,2013-08-29 21:22:00,
2013-08-29 17:44:00,79.0,66.0,-100.00,East,80,0.0,0.0,65,0.00,,,0.03,,2013-08-29 21:44:00,
2013-08-29 17:54:00,78.0,66.0,-100.00,East,80,0.0,0.0,66,0.00,,,0.03,,2013-08-29 21:54:00,
2013-08-29 18:14:00,78.0,65.0,-100.00,East,80,0.0,0.0,65,0.00,,,0.03,,2013-08-29 22:14:00,
2013-08-29 18:24:00,77.0,65.0,-100.00,East,80,0.0,0.0,66,0.00,,,0.03,,2013-08-29 22:24:00,
2013-08-29 18:43:00,76.0,65.0,-100.00,East,80,0.0,0.0,68,0.00,,,0.03,,2013-08-29 22:43:00,
2013-08-29 18:53:00,76.0,65.0,-100.00,East,80,0.0,0.0,70,0.00,,,0.03,,2013-08-29 22:53:00,
2013-08-29 19:13:00,76.0,66.0,-100.00,East,80,0.0,0.0,71,0.00,,,0.03,,2013-08-29 23:13:00,
2013-08-29 19:22:00,75.0,66.0,-100.00,East,80,0.0,0.0,73,0.00,,,0.03,,2013-08-29 23:22:00,
2013-08-29 19:53:00,74.0,66.0,-100.00,East,80,0.0,0.0,75,0.00,,,0.02,,2013-08-29 23:53:00,
2013-08-29 20:12:00,74.0,66.0,-100.00,East,80,0.0,0.0,77,0.00,,,0.01,,2013-08-30 00:12:00,
2013-08-29 20:22:00,73.0,66.0,-100.00,East,80,0.0,0.0,80,0.00,,,0.01,,2013-08-30 00:22:00,
2013-08-29 20:42:00,73.0,68.0,-100.00,East,80,0.0,0.0,83,0.00,,,0.01,,2013-08-30 00:42:00,
2013-08-29 20:52:00,73.0,68.0,-100.00,East,80,0.0,0.0,83,0.00,,,0.01,,2013-08-30 00:52:00,
2013-08-29 21:12:00,72.0,67.0,-100.00,East,80,0.0,0.0,84,0.00,,,0.01,,2013-08-30 01:12:00,
2013-08-29 21:22:00,72.0,67.0,-100.00,East,80,0.0,0.0,83,0.00,,,0.01,,2013-08-30 01:22:00,
2013-08-29 21:42:00,72.0,66.0,-100.00,East,80,0.0,0.0,82,0.00,,,0.01,,2013-08-30 01:42:00,
2013-08-29 21:52:00,71.0,65.0,-100.00,East,80,0.0,0.0,81,0.00,,,0.01,,2013-08-30 01:52:00,
2013-08-29 22:11:00,71.0,66.0,-100.00,East,80,0.0,0.0,84,0.00,,,0.01,,2013-08-30 02:11:00,
2013-08-29 22:22:00,71.0,66.0,-100.00,East,80,0.0,0.0,85,0.00,,,0.01,,2013-08-30 02:22:00,
2013-08-29 22:42:00,70.0,66.0,-100.00,East,80,0.0,0.0,86,0.00,,,0.01,,2013-08-30 02:42:00,
2013-08-29 22:52:00,71.0,67.0,-100.00,East,80,0.0,0.0,87,0.00,,,0.01,,2013-08-30 02:52:00,
2013-08-29 23:12:00,70.0,66.0,-100.00,East,80,0.0,0.0,87,0.00,,,0.01,,2013-08-30 03:12:00,
2013-08-29 23:22:00,70.0,66.0,-100.00,East,80,0.0,0.0,86,0.00,,,0.01,,2013-08-30 03:22:00,
2013-08-29 23:55:00,70.0,65.0,-100.00,East,80,0.0,0.0,85,0.00,,,0.01,,2013-08-30 03:55:00,